PU3WIW-13 Weather Reports


Display with metric or nautical units.
time (UTC)temp
F
wind
direction
speed
MPH
gust
MPH
rain 1hr
in
rain 24hr
in
rain mn
in
humidity
%
barometer
mb
20260508064613 62 9 12.0 19.0 0.07 0.84 0.27 10 997.5
20260508064312 62 19 6.0 15.0 0.07 0.84 0.27 10 997.2
20260508064012 62 3 5.0 13.0 0.07 0.84 0.27 10 997.1
20260508063713 62 341 3.0 13.0 0.07 0.84 0.27 10 997.4
20260508063412 62 325 4.0 12.0 0.07 0.84 0.27 10 998.0
20260508063112 62 337 2.0 11.0 0.04 0.81 0.24 10 998.2
20260508062813 62 342 4.0 11.0 0.04 0.81 0.24 10 998.7
20260508062512 62 4 4.0 11.0 0.04 0.81 0.24 10 998.5
20260508062212 62 354 4.0 11.0 0.04 0.81 0.24 10 998.7
20260508061911 62 349 2.0 11.0 0.02 0.79 0.22 10 999.2
20260508061612 62 333 1.0 11.0 0.02 0.79 0.22 10 999.0
20260508061311 62 315 4.0 11.0 0.02 0.79 0.22 10 999.2
20260508061011 62 320 3.0 11.0 0.02 0.79 0.22 10 999.0
20260508060712 62 321 5.0 11.0 0.04 0.79 0.22 10 998.9
20260508060411 62 332 3.0 13.0 0.04 0.79 0.22 10 998.9
20260508060110 62 329 2.0 13.0 0.07 0.79 0.22 10 998.7
20260508055812 62 329 5.0 13.0 0.09 0.79 0.22 10 998.9
20260508055511 62 308 3.0 10.0 0.14 0.79 0.22 10 998.9
20260508055211 62 320 2.0 12.0 0.22 0.79 0.22 10 998.9
20260508054912 62 310 4.0 12.0 0.19 0.76 0.19 10 999.0
20260508054611 62 330 7.0 12.0 0.19 0.76 0.19 10 999.2
20260508054310 62 327 6.0 12.0 0.19 0.76 0.19 10 998.9
20260508054011 62 342 3.0 9.0 0.19 0.76 0.19 10 998.7
20260508053711 62 16 5.0 8.0 0.19 0.76 0.19 10 998.9
20260508053411 62 5 2.0 7.0 0.19 0.76 0.19 10 998.7
20260508053110 62 351 1.0 9.0 0.19 0.76 0.19 10 998.7
20260508052810 62 334 2.0 11.0 0.19 0.76 0.19 10 998.9
20260508052511 62 325 2.0 15.0 0.19 0.76 0.19 10 999.0
20260508052210 62 334 5.0 15.0 0.19 0.76 0.19 10 999.2
20260508051910 62 339 5.0 15.0 0.19 0.76 0.19 10 999.1
20260508051611 62 353 3.0 13.0 0.19 0.76 0.19 10 999.1
20260508051310 62 322 3.0 13.0 0.19 0.76 0.19 10 999.1
20260508051010 63 284 6.0 18.0 0.19 0.76 0.19 10 999.2
20260508050711 63 271 3.0 18.0 0.17 0.74 0.17 10 999.2
20260508050410 63 307 3.0 25.0 0.14 0.71 0.14 10 999.6
20260508050109 64 305 6.0 25.0 0.14 0.71 0.14 10 999.7
20260508045811 65 325 6.0 25.0 0.09 0.66 0.09 10 999.6
20260508045510 66 311 12.0 25.0 0.04 0.62 0.04 10 999.6
20260508045209 67 297 3.0 11.0 0.00 0.57 0.00 10 1000.1
20260508044910 67 289 6.0 11.0 0.00 0.57 0.00 10 1000.2
20260508044609 67 292 3.0 9.0 0.00 0.57 0.00 10 998.9
20260508044309 67 305 3.0 9.0 0.00 0.57 0.00 10 998.6
20260508044010 68 284 2.0 6.0 0.00 0.57 0.00 10 998.7
20260508043709 68 289 2.0 6.0 0.00 0.57 0.00 10 998.5
20260508043408 68 267 0.0 6.0 0.00 0.57 0.00 10 998.6
20260508043110 69 278 2.0 6.0 0.00 0.57 0.00 10 998.6
20260508042809 69 291 0.0 4.0 0.00 0.57 0.00 10 998.5
20260508042508 69 308 0.0 4.0 0.00 0.57 0.00 10 998.6
20260508042210 69 302 2.0 8.0 0.00 0.57 0.00 10 998.2
20260508041909 69 268 2.0 8.0 0.00 0.57 0.00 10 998.2
20260508041626 70 255 1.0 8.0 0.00 0.57 0.00 10 998.4
20260508041328 70 247 0.0 9.0 0.00 0.57 0.00 10 998.5
20260508041027 70 226 2.0 9.0 0.00 0.57 0.00 10 998.5
20260508040727 71 230 2.0 9.0 0.00 0.57 0.00 10 998.2
20260508040427 71 228 1.0 9.0 0.00 0.57 0.00 10 998.4
20260508040127 72 254 0.0 7.0 0.00 0.57 0.00 10 998.2
20260508035826 72 282 2.0 7.0 0.00 0.57 0.00 10 998.2
20260508035527 72 295 2.0 9.0 0.00 0.57 0.00 10 998.7
20260508035226 72 301 3.0 13.0 0.00 0.57 0.00 10 998.2
20260508034925 72 283 0.0 13.0 0.00 0.57 0.00 10 998.4
20260508034627 72 284 3.0 13.0 0.00 0.57 0.00 10 998.7
20260508034326 72 337 1.0 9.0 0.00 0.57 0.00 10 998.7
20260508034027 72 13 1.0 15.0 0.00 0.57 0.00 10 998.2
20260508033727 72 15 2.0 15.0 0.00 0.57 0.00 10 998.1
20260508033426 72 30 3.0 15.0 0.00 0.57 0.00 10 998.2
20260508033125 72 42 6.0 15.0 0.00 0.57 0.00 10 998.1
20260508032826 72 37 2.0 12.0 0.00 0.57 0.00 10 998.2
20260508032526 72 29 3.0 12.0 0.00 0.57 0.00 10 998.2
20260508032225 72 24 5.0 12.0 0.00 0.57 0.00 10 998.2
20260508031925 72 12 3.0 9.0 0.00 0.57 0.00 10 998.5
20260508031626 72 330 2.0 6.0 0.00 0.57 0.00 10 998.4
20260508031326 72 208 3.0 6.0 0.00 0.57 0.00 10 998.5
20260508031025 72 228 0.0 6.0 0.00 0.57 0.00 10 998.7
20260508030726 72 234 1.0 6.0 0.00 0.57 0.00 10 998.7
20260508030426 72 229 2.0 6.0 0.00 0.57 0.00 10 998.7
20260508030125 72 288 3.0 9.0 0.00 0.57 0.00 10 998.6
20260508025824 72 350 3.0 11.0 0.00 0.57 0.57 10 998.2
20260508025525 72 24 2.0 11.0 0.00 0.57 0.57 10 998.1
20260508025225 73 34 3.0 11.0 0.00 0.57 0.57 10 997.7
20260508024924 73 44 6.0 11.0 0.00 0.57 0.57 10 997.5
20260508024625 73 42 5.0 12.0 0.00 0.57 0.57 10 997.5
20260508024325 73 17 0.0 12.0 0.00 0.57 0.57 10 997.5
20260508024024 73 10 4.0 12.0 0.00 0.57 0.57 10 997.6
20260508023725 73 12 5.0 15.0 0.00 0.57 0.57 10 997.7
20260508023424 73 21 2.0 15.0 0.00 0.57 0.57 10 997.7
20260508023124 73 351 3.0 17.0 0.00 0.57 0.57 10 997.7
20260508022825 73 352 2.0 17.0 0.00 0.57 0.57 10 998.0
20260508022524 73 348 3.0 17.0 0.00 0.57 0.57 10 998.0
20260508022224 73 8 3.0 13.0 0.00 0.57 0.57 10 998.1
20260508021923 73 11 5.0 15.0 0.00 0.57 0.57 10 998.2
20260508021624 74 11 6.0 15.0 0.00 0.57 0.57 10 998.1
20260508021324 74 17 3.0 15.0 0.00 0.57 0.57 10 998.2
20260508021025 74 339 6.0 12.0 0.00 0.57 0.57 10 998.2
20260508020724 74 334 3.0 12.0 0.00 0.57 0.57 10 998.5
20260508020424 74 341 5.0 12.0 0.00 0.57 0.57 10 998.4
20260508020123 74 351 6.0 12.0 0.00 0.57 0.57 10 998.6
20260508015824 74 1 2.0 12.0 0.00 0.57 0.57 10 998.7
20260508015523 74 350 6.0 13.0 0.00 0.57 0.57 10 998.7
20260508015223 74 6 3.0 13.0 0.00 0.57 0.57 10 998.6
20260508014924 74 353 4.0 16.0 0.00 0.57 0.57 10 998.6
20260508014623 74 346 6.0 16.0 0.00 0.57 0.57 10 998.6
20260508014323 74 359 1.0 16.0 0.00 0.57 0.57 10 998.7
20260508014024 74 350 3.0 16.0 0.00 0.57 0.57 10 998.7
20260508013723 74 357 6.0 13.0 0.00 0.57 0.57 10 998.7
20260508013423 74 355 4.0 13.0 0.00 0.57 0.57 10 998.6
20260508013124 74 8 2.0 16.0 0.00 0.57 0.57 10 998.6
20260508012823 74 6 3.0 16.0 0.00 0.57 0.57 10 998.7
20260508012523 74 358 2.0 19.0 0.00 0.57 0.57 10 998.7
20260508012224 74 342 4.0 19.0 0.00 0.57 0.57 10 998.9
20260508011923 74 330 6.0 19.0 0.00 0.57 0.57 10 998.7
20260508011622 74 336 5.0 20.0 0.00 0.57 0.57 10 998.9
20260508011322 74 341 7.0 20.0 0.00 0.57 0.57 10 999.0
20260508011023 74 344 5.0 20.0 0.00 0.57 0.57 10 998.9
20260508010722 74 324 9.0 20.0 0.00 0.57 0.57 10 999.0
20260508010422 74 310 5.0 14.0 0.00 0.57 0.57 10 999.0
20260508010123 74 311 3.0 14.0 0.00 0.57 0.57 10 998.7
20260508005822 74 11 3.0 14.0 0.00 0.57 0.57 10 998.9
20260508005522 74 345 2.0 19.0 0.00 0.57 0.57 10 999.1
20260508005222 74 2 4.0 19.0 0.00 0.57 0.57 10 999.0
20260508004922 74 358 3.0 19.0 0.00 0.57 0.57 10 998.7
20260508004621 74 9 5.0 12.0 0.00 0.57 0.57 10 999.0
20260508004323 74 332 3.0 11.0 0.00 0.57 0.57 10 999.0
20260508004022 74 321 4.0 15.0 0.00 0.57 0.57 10 999.0
20260508003721 74 331 2.0 15.0 0.00 0.57 0.57 10 999.0
20260508003422 74 341 5.0 16.0 0.00 0.57 0.57 10 998.9
20260508003121 74 333 4.0 16.0 0.00 0.57 0.57 10 998.9
20260508002822 74 335 6.0 16.0 0.00 0.57 0.57 10 998.9
20260508002522 74 357 6.0 16.0 0.00 0.57 0.57 10 999.0
20260508002221 74 356 3.0 14.0 0.00 0.57 0.57 10 999.0
20260508001922 74 2 5.0 12.0 0.00 0.57 0.57 10 999.0
20260508001621 74 343 6.0 12.0 0.00 0.57 0.57 10 998.7
20260508001321 74 214 6.0 12.0 0.00 0.57 0.57 10 998.9
20260508001022 74 168 3.0 12.0 0.00 0.57 0.57 10 998.7
20260508000720 74 348 2.0 12.0 0.00 0.57 0.57 10 998.7
20260508000422 74 22 3.0 10.0 0.00 0.57 0.57 10 998.7
20260508000121 74 358 3.0 16.0 0.00 0.57 0.57 10 998.7
20260507235820 74 32 6.0 16.0 0.00 0.57 0.57 10 998.7
20260507235520 74 333 3.0 16.0 0.00 0.57 0.57 10 998.5
20260507235220 74 279 3.0 11.0 0.00 0.57 0.57 10 998.5
20260507234921 74 296 4.0 9.0 0.00 0.57 0.57 10 998.5
20260507234621 74 309 3.0 7.0 0.00 0.57 0.57 10 998.5
20260507234320 74 351 3.0 9.0 0.00 0.57 0.57 10 998.4
20260507234021 74 5 1.0 9.0 0.00 0.57 0.57 10 998.2
20260507233721 74 351 2.0 9.0 0.00 0.57 0.57 10 998.2
20260507233419 74 351 5.0 9.0 0.00 0.57 0.57 10 998.2
20260507233121 74 330 1.0 9.0 0.00 0.57 0.57 10 998.2
20260507232820 74 340 2.0 9.0 0.00 0.57 0.57 10 998.2
20260507232519 74 332 0.0 9.0 0.00 0.57 0.57 10 998.2
20260507232221 74 343 4.0 9.0 0.00 0.57 0.57 10 998.4
20260507231920 74 343 0.0 7.0 0.00 0.57 0.57 10 998.4
20260507231619 74 1 1.0 7.0 0.00 0.57 0.57 10 998.4
20260507231320 74 351 0.0 7.0 0.00 0.57 0.57 10 998.4
20260507231020 74 340 1.0 9.0 0.00 0.57 0.57 10 998.4
20260507230719 75 333 2.0 9.0 0.00 0.57 0.57 10 998.5
20260507230420 75 320 3.0 9.0 0.00 0.57 0.57 10 998.4
20260507230119 75 335 2.0 8.0 0.00 0.57 0.57 10 998.2
20260507225819 75 319 0.0 8.0 0.00 0.57 0.57 10 998.2
20260507225520 75 38 2.0 10.0 0.00 0.57 0.57 10 998.4
20260507225219 75 53 3.0 10.0 0.00 0.57 0.57 10 998.2
20260507224918 75 57 1.0 10.0 0.00 0.57 0.57 10 998.2
20260507224620 75 49 3.0 10.0 0.00 0.57 0.57 10 998.2
20260507224319 75 32 1.0 7.0 0.00 0.57 0.57 10 998.2
20260507224018 75 5 2.0 7.0 0.00 0.57 0.57 10 998.1
20260507223719 75 28 3.0 9.0 0.00 0.57 0.57 10 998.2
20260507223419 75 28 3.0 9.0 0.00 0.57 0.57 10 998.4
20260507223118 75 37 3.0 9.0 0.00 0.57 0.57 10 998.5
20260507222817 75 21 2.0 11.0 0.00 0.57 0.57 10 998.4
20260507222519 75 339 1.0 11.0 0.00 0.57 0.57 10 998.5
20260507222218 75 339 2.0 11.0 0.00 0.57 0.57 10 998.4
20260507221917 75 31 2.0 8.0 0.00 0.57 0.57 10 998.4
20260507221618 75 323 1.0 8.0 0.00 0.57 0.57 10 998.4
20260507221317 75 19 3.0 8.0 0.00 0.57 0.57 10 998.5
20260507221017 75 359 1.0 7.0 0.00 0.57 0.57 10 998.5
20260507220718 75 11 2.0 7.0 0.00 0.57 0.57 10 998.5
20260507220417 75 43 3.0 8.0 0.00 0.57 0.57 10 998.6
20260507220116 75 46 1.0 9.0 0.00 0.57 0.57 10 998.4
20260507215818 75 59 1.0 9.0 0.00 0.57 0.57 10 998.6
20260507215517 75 40 4.0 9.0 0.00 0.57 0.57 10 998.5
20260507215217 75 5 6.0 9.0 0.00 0.57 0.57 10 998.5
20260507214918 75 10 2.0 6.0 0.00 0.57 0.57 10 998.6
20260507214617 75 10 4.0 6.0 0.00 0.57 0.57 10 998.6
20260507214316 75 32 3.0 6.0 0.00 0.57 0.57 10 998.7
20260507214018 75 37 3.0 6.0 0.00 0.57 0.57 10 998.7
20260507213717 75 42 3.0 6.0 0.00 0.57 0.57 10 998.6
20260507213417 76 44 0.0 6.0 0.00 0.57 0.57 10 998.6
20260507213117 76 39 3.0 6.0 0.00 0.57 0.57 10 998.7
20260507212816 76 19 1.0 5.0 0.00 0.57 0.57 10 998.7
20260507212517 76 10 1.0 5.0 0.00 0.57 0.57 10 998.9
20260507212217 76 318 1.0 5.0 0.00 0.57 0.57 10 998.7
20260507211916 76 335 0.0 5.0 0.00 0.57 0.57 10 998.7
20260507211617 76 16 0.0 7.0 0.00 0.57 0.57 10 999.0
20260507211316 76 33 0.0 7.0 0.00 0.57 0.57 10 998.9
20260507211015 76 353 0.0 7.0 0.00 0.57 0.57 10 999.0
20260507210717 77 356 4.0 7.0 0.00 0.57 0.57 10 998.9
20260507210416 77 349 2.0 7.0 0.00 0.57 0.57 10 998.9
20260507210115 77 9 3.0 8.0 0.00 0.57 0.57 10 998.7
20260507205815 77 5 3.0 8.0 0.00 0.57 0.57 10 998.7
20260507205516 77 353 2.0 8.0 0.00 0.57 0.57 10 998.7
20260507205215 77 14 4.0 8.0 0.00 0.57 0.57 10 998.7
20260507204915 77 348 0.0 11.0 0.00 0.57 0.57 10 998.7
20260507204616 77 348 2.0 11.0 0.00 0.57 0.57 10 998.7
20260507204315 78 340 3.0 11.0 0.00 0.57 0.57 10 998.7
20260507204014 78 338 5.0 10.0 0.00 0.57 0.57 10 998.7
20260507203716 78 311 1.0 10.0 0.00 0.57 0.57 10 998.7
20260507203415 78 293 3.0 10.0 0.00 0.57 0.57 10 998.7
20260507203114 78 276 3.0 9.0 0.00 0.57 0.57 10 998.6
20260507202816 78 2 3.0 11.0 0.00 0.57 0.57 10 998.7
20260507202515 78 3 5.0 11.0 0.00 0.57 0.57 10 998.7
20260507202214 79 358 3.0 12.0 0.00 0.57 0.57 10 998.6
20260507201916 79 328 5.0 12.0 0.00 0.57 0.57 10 998.5
20260507201615 79 314 5.0 14.0 0.00 0.57 0.57 10 998.6
20260507195550 80 346 3.0 15.0 0.00 0.57 0.57 10 998.6
20260507195249 80 1 7.0 15.0 0.00 0.57 0.57 10 998.6
20260507194948 80 339 6.0 15.0 0.00 0.57 0.57 10 998.7
20260507194648 80 351 2.0 15.0 0.00 0.57 0.57 10 998.6
20260507194349 80 322 9.0 15.0 0.00 0.57 0.57 10 998.7
20260507194048 80 335 2.0 15.0 0.00 0.57 0.57 10 998.7
20260507193747 80 335 9.0 17.0 0.00 0.57 0.57 10 998.7
20260507193449 80 325 5.0 17.0 0.00 0.57 0.57 10 998.7
20260507193148 81 327 3.0 17.0 0.00 0.57 0.57 10 998.7
20260507192847 81 327 4.0 17.0 0.00 0.57 0.57 10 998.7
20260507192549 82 328 6.0 15.0 0.00 0.57 0.57 10 998.7
20260507192248 82 340 3.0 15.0 0.00 0.57 0.57 10 998.7
20260507191947 82 334 3.0 15.0 0.00 0.57 0.57 10 998.9
20260507191648 82 338 6.0 15.0 0.00 0.57 0.57 10 998.7
20260507191348 82 330 3.0 15.0 0.00 0.57 0.57 10 998.7
20260507191047 82 336 5.0 15.0 0.00 0.57 0.57 10 998.7
20260507190748 82 330 2.0 20.0 0.00 0.57 0.57 10 998.7
20260507190448 82 345 3.0 20.0 0.00 0.57 0.57 10 998.7
20260507190147 82 322 8.0 20.0 0.00 0.57 0.57 10 998.6
20260507185848 82 344 9.0 15.0 0.00 0.57 0.57 10 998.7
20260507185547 82 307 4.0 12.0 0.00 0.57 0.57 10 998.7
20260507185247 81 306 1.0 12.0 0.00 0.57 0.57 10 998.7
20260507184946 81 306 3.0 13.0 0.00 0.57 0.57 10 998.7
20260507184648 81 312 5.0 20.0 0.00 0.57 0.57 10 998.7
20260507184347 81 323 2.0 20.0 0.00 0.57 0.57 10 998.7
20260507184048 82 318 7.0 20.0 0.00 0.57 0.57 10 998.7
20260507183747 82 323 7.0 20.0 0.00 0.57 0.57 10 998.7
20260507183447 82 343 3.0 15.0 0.00 0.57 0.57 10 998.7
20260507183146 82 325 8.0 24.0 0.00 0.57 0.57 10 998.7
20260507182848 82 313 9.0 24.0 0.00 0.57 0.57 10 998.6
20260507182547 82 309 3.0 24.0 0.00 0.57 0.57 10 998.7
20260507182246 82 317 6.0 14.0 0.00 0.57 0.57 10 998.7
20260507181947 82 335 4.0 17.0 0.00 0.57 0.57 10 998.7
20260507181647 82 322 4.0 19.0 0.00 0.57 0.57 10 998.9
20260507181346 83 311 2.0 19.0 0.00 0.57 0.57 10 999.0
20260507181047 83 318 7.0 19.0 0.00 0.57 0.57 10 998.9
20260507180747 83 335 6.0 19.0 0.00 0.57 0.57 10 999.0
20260507180446 84 339 3.0 19.0 0.00 0.57 0.57 10 998.7
20260507180147 84 354 6.0 19.0 0.00 0.57 0.57 10 999.0
20260507175847 84 319 4.0 19.0 0.00 0.57 0.57 10 999.1
20260507175546 83 317 8.0 17.0 0.00 0.57 0.57 10 999.0
20260507175245 83 307 3.0 17.0 0.00 0.57 0.57 10 999.0
20260507174945 83 321 6.0 18.0 0.00 0.57 0.57 10 999.2
20260507174647 82 315 4.0 23.0 0.00 0.57 0.57 10 999.1
20260507174346 81 314 5.0 25.0 0.00 0.57 0.57 10 999.2
20260507174045 80 309 5.0 25.0 0.00 0.57 0.57 10 999.2
20260507173746 81 306 4.0 25.0 0.00 0.57 0.57 10 999.4
20260507173446 82 290 7.0 21.0 0.00 0.57 0.57 10 999.2
20260507173145 82 299 7.0 20.0 0.00 0.57 0.57 10 999.2
20260507172847 83 321 6.0 20.0 0.00 0.57 0.57 10 999.2
20260507172546 84 334 5.0 23.0 0.00 0.57 0.57 10 999.1
20260507172245 83 332 4.0 23.0 0.00 0.57 0.57 10 999.2
20260507171944 83 325 7.0 23.0 0.00 0.57 0.57 10 999.2
20260507171646 83 330 9.0 16.0 0.00 0.57 0.57 10 999.1
20260507171346 82 351 9.0 16.0 0.57 0.57 0.57 10 999.2
20260507171045 81 290 3.0 14.0 0.57 0.57 0.57 10 999.2
20260507170745 81 312 3.0 23.0 0.57 0.57 0.57 10 999.4
20260507170445 81 309 4.0 23.0 0.57 0.57 0.57 10 999.4
20260507170144 81 314 3.0 23.0 0.57 0.57 0.57 10 999.4
20260507165846 81 319 9.0 25.0 0.57 0.57 0.57 10 999.4
20260507165545 82 312 4.0 25.0 0.57 0.57 0.57 10 999.5
20260507165244 82 315 3.0 25.0 0.57 0.57 0.57 10 999.2
20260507164946 82 314 6.0 16.0 0.57 0.57 0.57 10 999.5
20260507164645 83 331 6.0 21.0 0.57 0.57 0.57 10 999.2
20260507164344 85 332 5.0 21.0 0.57 0.57 0.57 10 999.5
20260507164045 85 321 6.0 21.0 0.57 0.57 0.57 10 999.4
20260507163744 85 282 6.0 27.0 0.57 0.57 0.57 10 999.2
20260507163444 85 282 7.0 30.0 0.57 0.57 0.57 10 999.4
20260507163145 85 301 3.0 30.0 0.57 0.57 0.57 10 999.6
20260507162844 85 346 9.0 30.0 0.57 0.57 0.57 10 999.5
20260507162543 85 338 8.0 37.0 0.57 0.57 0.57 10 999.6
20260507162243 85 347 6.0 37.0 0.57 0.57 0.57 10 999.7
20260507161944 84 343 8.0 37.0 0.57 0.57 0.57 10 999.6
20260507161644 84 293 5.0 37.0 0.57 0.57 0.57 10 999.6
20260507161344 65 30 0.0 4.0 0.00 0.00 0.00 10 1008.5
20260507161044 65 30 0.0 4.0 0.00 0.00 0.00 10 1008.5
20260507160743 65 30 0.0 4.0 0.00 0.00 0.00 10 1008.5
20260507160444 65 30 0.0 4.0 0.00 0.00 0.00 10 1008.5
20260507160144 65 30 0.0 4.0 0.00 0.00 0.00 10 1008.5
20260507155843 65 30 0.0 4.0 0.00 0.00 0.00 10 1008.5
20260507155542 65 30 0.0 4.0 0.00 0.00 0.00 10 1008.5
20260507155244 65 30 0.0 4.0 0.00 0.00 0.00 10 1008.5
20260507154943 65 30 0.0 4.0 0.00 0.00 0.00 10 1008.5
20260507154643 65 30 0.0 4.0 0.00 0.00 0.00 10 1008.5
20260507154344 65 30 0.0 4.0 0.00 0.00 0.00 10 1008.5
20260507154044 65 30 0.0 4.0 0.00 0.00 0.00 10 1008.5
20260507153743 65 30 0.0 4.0 0.00 0.00 0.00 10 1008.5
20260507153443 65 30 0.0 4.0 0.00 0.00 0.00 10 1008.5
20260507153144 65 30 0.0 4.0 0.00 0.00 0.00 10 1008.5
20260507152844 65 30 0.0 4.0 0.00 0.00 0.00 10 1008.5
20260507152544 65 30 0.0 4.0 0.00 0.00 0.00 10 1008.5
20260507152244 65 30 0.0 4.0 0.00 0.00 0.00 10 1008.5
20260507151943 65 30 0.0 4.0 0.00 0.00 0.00 10 1008.5
20260507151643 65 30 0.0 4.0 0.00 0.00 0.00 10 1008.5
20260507151344 65 30 0.0 4.0 0.00 0.00 0.00 10 1008.5
20260507151043 65 30 0.0 4.0 0.00 0.00 0.00 10 1008.5
20260507150743 65 30 0.0 4.0 0.00 0.00 0.00 10 1008.5
20260507150444 65 30 0.0 4.0 0.00 0.00 0.00 10 1008.5
20260507150144 65 30 0.0 4.0 0.00 0.00 0.00 10 1008.5
20260507145843 65 30 0.0 4.0 0.00 0.00 0.00 10 1008.5
20260507145544 65 30 0.0 4.0 0.00 0.00 0.00 10 1008.5
20260507145244 65 30 0.0 4.0 0.00 0.00 0.00 10 1008.5
20260507144943 65 30 0.0 4.0 0.00 0.00 0.00 10 1008.5
20260507144642 65 30 0.0 4.0 0.00 0.00 0.00 10 1008.5
20260507144344 65 30 0.0 4.0 0.00 0.00 0.00 10 1008.5
20260507144043 65 30 0.0 4.0 0.00 0.00 0.00 10 1008.5
20260507143744 65 30 0.0 4.0 0.00 0.00 0.00 10 1008.5
20260507143444 65 30 0.0 4.0 0.00 0.00 0.00 10 1008.5
20260507143143 65 30 0.0 4.0 0.00 0.00 0.00 10 1008.5
20260507142844 65 30 0.0 4.0 0.00 0.00 0.00 10 1008.5
20260507142544 65 30 0.0 4.0 0.00 0.00 0.00 10 1008.5
20260507142243 65 30 0.0 4.0 0.00 0.00 0.00 10 1008.5
20260507141944 65 30 0.0 4.0 0.00 0.00 0.00 10 1008.5
20260507141644 65 30 0.0 4.0 0.00 0.00 0.00 10 1008.5
20260507141343 65 30 0.0 4.0 0.00 0.00 0.00 10 1008.5
20260507141044 65 30 0.0 4.0 0.00 0.00 0.00 10 1008.5
20260507140744 65 30 0.0 4.0 0.00 0.00 0.00 10 1008.5
20260507140443 65 30 0.0 4.0 0.00 0.00 0.00 10 1008.5
20260507140145 65 30 0.0 4.0 0.00 0.00 0.00 10 1008.5
20260507135844 65 30 0.0 4.0 0.00 0.00 0.00 10 1008.5
20260507135543 65 30 0.0 4.0 0.00 0.00 0.00 10 1008.5
20260507135244 65 30 0.0 4.0 0.00 0.00 0.00 10 1008.5
20260507134943 65 30 0.0 4.0 0.00 0.00 0.00 10 1008.5
20260507134644 65 30 0.0 4.0 0.00 0.00 0.00 10 1008.5
20260507134343 65 30 0.0 4.0 0.00 0.00 0.00 10 1008.5
20260507134043 65 30 0.0 4.0 0.00 0.00 0.00 10 1008.5
20260507133744 65 30 0.0 4.0 0.00 0.00 0.00 10 1008.5
20260507133444 65 30 0.0 4.0 0.00 0.00 0.00 10 1008.5
20260507133143 65 30 0.0 4.0 0.00 0.00 0.00 10 1008.5
20260507132844 65 30 0.0 4.0 0.00 0.00 0.00 10 1008.5
20260507132544 65 30 0.0 4.0 0.00 0.00 0.00 10 1008.5
20260507132243 65 30 0.0 4.0 0.00 0.00 0.00 10 1008.5
20260507131943 65 30 0.0 4.0 0.00 0.00 0.00 10 1008.5
20260507131644 65 30 0.0 4.0 0.00 0.00 0.00 10 1008.5
20260507131343 65 30 0.0 4.0 0.00 0.00 0.00 10 1008.5
20260507131044 65 30 0.0 4.0 0.00 0.00 0.00 10 1008.5
20260507130744 65 30 0.0 4.0 0.00 0.00 0.00 10 1008.5
20260507130443 65 30 0.0 4.0 0.00 0.00 0.00 10 1008.5
20260507130144 65 30 0.0 4.0 0.00 0.00 0.00 10 1008.5
20260507125844 65 30 0.0 4.0 0.00 0.00 0.00 10 1008.5
20260507125543 65 30 0.0 4.0 0.00 0.00 0.00 10 1008.5
20260507125243 65 30 0.0 4.0 0.00 0.00 0.00 10 1008.5
20260507124944 65 30 0.0 4.0 0.00 0.00 0.00 10 1008.5
20260507124643 65 30 0.0 4.0 0.00 0.00 0.00 10 1008.5
20260507124344 65 30 0.0 4.0 0.00 0.00 0.00 10 1008.5
20260507124044 65 30 0.0 4.0 0.00 0.00 0.00 10 1008.5
20260507123743 65 30 0.0 4.0 0.00 0.00 0.00 10 1008.5
20260507123445 65 30 0.0 4.0 0.00 0.00 0.00 10 1008.5
20260507123144 65 30 0.0 4.0 0.00 0.00 0.00 10 1008.5
20260507122844 65 30 0.0 4.0 0.00 0.00 0.00 10 1008.5
20260507122544 65 30 0.0 4.0 0.00 0.00 0.00 10 1008.5
20260507122243 65 30 0.0 4.0 0.00 0.00 0.00 10 1008.5
20260507121944 65 30 0.0 4.0 0.00 0.00 0.00 10 1008.5
20260507121644 65 30 0.0 4.0 0.00 0.00 0.00 10 1008.5
20260507121343 65 30 0.0 4.0 0.00 0.00 0.00 10 1008.5
20260507121044 65 30 0.0 4.0 0.00 0.00 0.00 10 1008.5
20260507120744 65 30 0.0 4.0 0.00 0.00 0.00 10 1008.5
20260507120444 65 30 0.0 4.0 0.00 0.00 0.00 10 1008.5
20260507120143 65 30 0.0 4.0 0.00 0.00 0.00 10 1008.5
20260507115843 65 30 0.0 4.0 0.00 0.00 0.00 10 1008.5
20260507115544 65 30 0.0 4.0 0.00 0.00 0.00 10 1008.5
20260507115243 65 30 0.0 4.0 0.00 0.00 0.00 10 1008.5
20260507114943 65 30 0.0 4.0 0.00 0.00 0.00 10 1008.5
20260507114644 65 30 0.0 4.0 0.00 0.00 0.00 10 1008.5
20260507114343 65 30 0.0 4.0 0.00 0.00 0.00 10 1008.5
20260507114043 65 30 0.0 4.0 0.00 0.00 0.00 10 1008.5
20260507113744 65 30 0.0 4.0 0.00 0.00 0.00 10 1008.5
20260507113443 65 30 0.0 4.0 0.00 0.00 0.00 10 1008.5
20260507113143 65 30 0.0 4.0 0.00 0.00 0.00 10 1008.5
20260507112844 65 30 0.0 4.0 0.00 0.00 0.00 10 1008.5
20260507112544 65 30 0.0 4.0 0.00 0.00 0.00 10 1008.5
20260507112243 65 30 0.0 4.0 0.00 0.00 0.00 10 1008.5
20260507111944 65 30 0.0 4.0 0.00 0.00 0.00 10 1008.5
20260507111644 65 30 0.0 4.0 0.00 0.00 0.00 10 1008.5
20260507111343 65 30 0.0 4.0 0.00 0.00 0.00 10 1008.5
20260507111044 65 30 0.0 4.0 0.00 0.00 0.00 10 1008.5
20260507110743 65 30 0.0 4.0 0.00 0.00 0.00 10 1008.5
20260507110444 65 30 0.0 4.0 0.00 0.00 0.00 10 1008.5
20260507110143 65 30 0.0 4.0 0.00 0.00 0.00 10 1008.5
20260507105843 65 30 0.0 4.0 0.00 0.00 0.00 10 1008.5
20260507105544 65 30 0.0 4.0 0.00 0.00 0.00 10 1008.5
20260507105244 65 30 0.0 4.0 0.00 0.00 0.00 10 1008.5
20260507104944 65 30 0.0 4.0 0.00 0.00 0.00 10 1008.5
20260507104643 65 30 0.0 4.0 0.00 0.00 0.00 10 1008.5
20260507104344 65 30 0.0 4.0 0.00 0.00 0.00 10 1008.5
20260507104044 65 30 0.0 4.0 0.00 0.00 0.00 10 1008.5
20260507103744 65 30 0.0 4.0 0.00 0.00 0.00 10 1008.5
20260507103443 65 30 0.0 4.0 0.00 0.00 0.00 10 1008.5
20260507103143 65 30 0.0 4.0 0.00 0.00 0.00 10 1008.5
20260507102844 65 30 0.0 4.0 0.00 0.00 0.00 10 1008.5
20260507102543 65 30 0.0 4.0 0.00 0.00 0.00 10 1008.5
20260507102243 65 30 0.0 4.0 0.00 0.00 0.00 10 1008.5
20260507101944 65 30 0.0 4.0 0.00 0.00 0.00 10 1008.5
20260507101644 65 30 0.0 4.0 0.00 0.00 0.00 10 1008.5
20260507101343 65 30 0.0 4.0 0.00 0.00 0.00 10 1008.5
20260507101044 65 30 0.0 4.0 0.00 0.00 0.00 10 1008.5
20260507100743 65 30 0.0 4.0 0.00 0.00 0.00 10 1008.5
20260507100443 65 30 0.0 4.0 0.00 0.00 0.00 10 1008.5
20260507100144 65 30 0.0 4.0 0.00 0.00 0.00 10 1008.5
20260507095844 65 30 0.0 4.0 0.00 0.00 0.00 10 1008.5
20260507095543 65 30 0.0 4.0 0.00 0.00 0.00 10 1008.5
20260507095243 65 30 0.0 4.0 0.00 0.00 0.00 10 1008.5
20260507094943 65 30 0.0 4.0 0.00 0.00 0.00 10 1008.5
20260507094644 65 30 0.0 4.0 0.00 0.00 0.00 10 1008.5
20260507094343 65 30 0.0 4.0 0.00 0.00 0.00 10 1008.5
20260507094044 65 30 0.0 4.0 0.00 0.00 0.00 10 1008.5
20260507093744 65 30 0.0 4.0 0.00 0.00 0.00 10 1008.5
20260507093443 65 30 0.0 4.0 0.00 0.00 0.00 10 1008.5
20260507093144 65 30 0.0 4.0 0.00 0.00 0.00 10 1008.5
20260507092843 65 30 0.0 4.0 0.00 0.00 0.00 10 1008.5
20260507092544 65 30 0.0 4.0 0.00 0.00 0.00 10 1008.5
20260507092244 65 30 0.0 4.0 0.00 0.00 0.00 10 1008.5
20260507091943 65 30 0.0 4.0 0.00 0.00 0.00 10 1008.5
20260507091645 65 30 0.0 4.0 0.00 0.00 0.00 10 1008.5
20260507091344 65 30 0.0 4.0 0.00 0.00 0.00 10 1008.5
20260507091043 65 30 0.0 4.0 0.00 0.00 0.00 10 1008.5
20260507090744 65 30 0.0 4.0 0.00 0.00 0.00 10 1008.5
20260507090444 65 30 0.0 4.0 0.00 0.00 0.00 10 1008.5
20260507090143 65 30 0.0 4.0 0.00 0.00 0.00 10 1008.5
20260507085845 65 30 0.0 4.0 0.00 0.00 0.00 10 1008.5
20260507085544 65 30 0.0 4.0 0.00 0.00 0.00 10 1008.5
20260507085243 65 30 0.0 4.0 0.00 0.00 0.00 10 1008.5
20260507084944 65 30 0.0 4.0 0.00 0.00 0.00 10 1008.5
20260507084644 65 30 0.0 4.0 0.00 0.00 0.00 10 1008.5
20260507084343 65 30 0.0 4.0 0.00 0.00 0.00 10 1008.5
20260507084044 65 30 0.0 4.0 0.00 0.00 0.00 10 1008.5
20260507083744 65 30 0.0 4.0 0.00 0.00 0.00 10 1008.5
20260507083444 65 30 0.0 4.0 0.00 0.00 0.00 10 1008.5
20260507083144 65 30 0.0 4.0 0.00 0.00 0.00 10 1008.5
20260507082843 65 30 0.0 4.0 0.00 0.00 0.00 10 1008.5
20260507082544 65 30 0.0 4.0 0.00 0.00 0.00 10 1008.5
20260507082244 65 30 0.0 4.0 0.00 0.00 0.00 10 1008.5
20260507081943 65 30 0.0 4.0 0.00 0.00 0.00 10 1008.5
20260507081645 65 30 0.0 4.0 0.00 0.00 0.00 10 1008.5
20260507081344 65 30 0.0 4.0 0.00 0.00 0.00 10 1008.5
20260507081043 65 30 0.0 4.0 0.00 0.00 0.00 10 1008.5
20260507080744 65 30 0.0 4.0 0.00 0.00 0.00 10 1008.5
20260507080444 65 30 0.0 4.0 0.00 0.00 0.00 10 1008.5
20260507080143 65 30 0.0 4.0 0.00 0.00 0.00 10 1008.5
20260507075844 65 30 0.0 4.0 0.00 0.00 0.00 10 1008.5
20260507075544 65 30 0.0 4.0 0.00 0.00 0.00 10 1008.5
20260507075243 65 30 0.0 4.0 0.00 0.00 0.00 10 1008.5
20260507074945 65 30 0.0 4.0 0.00 0.00 0.00 10 1008.5
20260507074644 65 30 0.0 4.0 0.00 0.00 0.00 10 1008.5
20260507074343 65 30 0.0 4.0 0.00 0.00 0.00 10 1008.5
20260507074044 65 30 0.0 4.0 0.00 0.00 0.00 10 1008.5
20260507073744 65 30 0.0 4.0 0.00 0.00 0.00 10 1008.5
20260507073443 65 30 0.0 4.0 0.00 0.00 0.00 10 1008.5
20260507073144 65 30 0.0 4.0 0.00 0.00 0.00 10 1008.5
20260507072844 65 30 0.0 4.0 0.00 0.00 0.00 10 1008.5
20260507072543 65 30 0.0 4.0 0.00 0.00 0.00 10 1008.5
20260507072245 65 30 0.0 4.0 0.00 0.00 0.00 10 1008.5
20260507071944 65 30 0.0 4.0 0.00 0.00 0.00 10 1008.5
20260507071643 65 30 0.0 4.0 0.00 0.00 0.00 10 1008.5
20260507071345 65 30 0.0 4.0 0.00 0.00 0.00 10 1008.5
20260507071044 65 30 0.0 4.0 0.00 0.00 0.00 10 1008.5
20260507070743 65 30 0.0 4.0 0.00 0.00 0.00 10 1008.5
20260507070445 65 30 0.0 4.0 0.00 0.00 0.00 10 1008.5
20260507070144 65 30 0.0 4.0 0.00 0.00 0.00 10 1008.5
20260507065843 65 30 0.0 4.0 0.00 0.00 0.00 10 1008.5
20260507065543 65 30 0.0 4.0 0.00 0.00 0.00 10 1008.5
20260507065244 65 30 0.0 4.0 0.00 0.00 0.00 10 1008.5
20260507064943 65 30 0.0 4.0 0.00 0.00 0.00 10 1008.5